, AK

(GMT )
Deadhorse

Weather History for PASC - March, 2014

Change the Weather History Date:

Thursday, March 6, 2014

  Actual Average Record
Temperature  
Mean Temperature -24 °F -  
Max Temperature -20 °F -7 °F 17 °F (2003)
Min Temperature -27 °F -20 °F -45 °F (2004)
Degree Days  
Heating Degree Days 88    
Moisture  
Dew Point -31 °F    
Average Humidity 73    
Maximum Humidity 76    
Minimum Humidity 69    
Precipitation  
Precipitation 0.00 in - - ()
Sea Level Pressure  
Sea Level Pressure 30.44 in    
Wind  
Wind Speed 15 mph (SW)    
Max Wind Speed 16 mph    
Max Gust Speed -    
Visibility 9 miles    
Events Snow    
Averages and records for this station are not official NWS values.
T = Trace of Precipitation, MM = Missing Value Source: NWS Daily Summary

Daily Weather History Graph

Daily Weather History Graph

Search for Another Location

Airport or City:

Trip Planner

Search our weather history database for the weather conditions in past years. The results will help you decide how hot, cold, wet, or windy it might be!

Date:

Astronomy

Mar. 06, 2014 Rise Set
Actual Time 7:56 AM AKST 6:14 PM AKST
Civil Twilight 6:55 AM AKST 7:16 PM AKST
Nautical Twilight 5:43 AM AKST 8:28 PM AKST
Astronomical Twilight 4:24 AM AKST 9:49 PM AKST
Moon 7:40 AM AKST (3/6) 2:56 AM AKST (3/6)
Length of Visible Light 12h 21m
Length of Day
10h 18m
Waxing Crescent, 34% of the Moon is Illuminated
Mar 6
Waxing Crescent
Mar 8
First Quarter
Mar 16
Full
Mar 23
Last Quarter
Mar 30
New

Hourly Weather History & Observations

Time (AKST) Temp. Windchill Dew Point Humidity Pressure Visibility Wind Dir Wind Speed Gust Speed Precip Events Conditions
12:53 AM -27.9 °F -55.1 °F -34.1 °F 73% 30.51 in 10.0 mi WSW 15.0 mph - N/A   Scattered Clouds
1:53 AM -27.0 °F -53.1 °F -34.1 °F 69% 30.51 in 10.0 mi WSW 13.8 mph - N/A   Scattered Clouds
2:53 AM -27.0 °F -53.1 °F -33.0 °F 73% 30.51 in 10.0 mi SW 13.8 mph - N/A   Scattered Clouds
3:53 AM -27.0 °F -54.0 °F -33.0 °F 73% 30.50 in 10.0 mi SW 15.0 mph - N/A   Scattered Clouds
4:53 AM -26.0 °F -51.7 °F -32.1 °F 73% 30.50 in 10.0 mi WSW 13.8 mph - N/A   Scattered Clouds
5:53 AM -25.1 °F -50.5 °F -31.0 °F 74% 30.50 in 10.0 mi WSW 13.8 mph - N/A   Scattered Clouds
6:53 AM -25.1 °F -51.5 °F -31.0 °F 74% 30.49 in 10.0 mi SW 15.0 mph - N/A   Scattered Clouds
7:53 AM -26.0 °F -51.7 °F -32.1 °F 73% 30.49 in 10.0 mi SW 13.8 mph - N/A   Scattered Clouds
8:53 AM -26.0 °F -51.7 °F -33.0 °F 69% 30.49 in 10.0 mi SW 13.8 mph - N/A   Scattered Clouds
9:53 AM -26.0 °F -51.7 °F -32.1 °F 73% 30.48 in 10.0 mi WSW 13.8 mph - N/A   Scattered Clouds
10:53 AM -25.1 °F -50.5 °F -31.0 °F 74% 30.48 in 9.0 mi WSW 13.8 mph - N/A   Scattered Clouds
11:53 AM -23.1 °F -48.9 °F -29.9 °F 70% 30.46 in 7.0 mi SW 15.0 mph - N/A   Partly Cloudy
12:53 PM -22.0 °F -47.5 °F -27.9 °F 74% 30.46 in 5.0 mi SW 15.0 mph - N/A Snow Blowing Snow
1:53 PM -20.9 °F -46.2 °F -27.9 °F 70% 30.45 in 7.0 mi SW 15.0 mph - N/A Snow Blowing Snow
2:53 PM -20.9 °F -46.2 °F -27.0 °F 73% 30.44 in 6.0 mi SW 15.0 mph - N/A Snow Blowing Snow
3:00 PM -20.2 °F -46.0 °F -27.4 °F 69% 30.43 in 7.0 mi SW 16.1 mph - N/A Snow Blowing Snow
3:53 PM -20.0 °F -45.0 °F -26.0 °F 74% 30.43 in 9.0 mi SW 15.0 mph - N/A Snow Blowing Snow
4:53 PM -20.9 °F -47.0 °F -27.0 °F 73% 30.42 in 10.0 mi SW 16.1 mph - N/A Snow Blowing Snow
5:53 PM -23.1 °F -48.9 °F -29.0 °F 74% 30.39 in 10.0 mi SW 15.0 mph - N/A   Scattered Clouds
6:53 PM -25.1 °F -51.5 °F -31.0 °F 74% 30.38 in 10.0 mi SW 15.0 mph - N/A   Partly Cloudy
7:53 PM -25.1 °F -51.5 °F -31.0 °F 74% 30.38 in 7.0 mi SW 15.0 mph - N/A   Scattered Clouds
8:00 PM -25.6 °F -52.1 °F -31.0 °F 76% 30.36 in 5.0 mi SW 15.0 mph - 0.00 in Snow Light Snow
8:53 PM -26.0 °F -53.5 °F -32.1 °F 73% 30.35 in 7.0 mi SW 16.1 mph - 0.00 in   Scattered Clouds
9:53 PM -27.0 °F -54.0 °F -33.0 °F 73% 30.35 in 10.0 mi SW 15.0 mph - N/A   Clear
10:53 PM -26.0 °F -52.6 °F -32.1 °F 73% 30.33 in 10.0 mi SW 15.0 mph - N/A   Partly Cloudy
11:53 PM -27.0 °F -53.1 °F -33.0 °F 73% 30.32 in 10.0 mi SW 13.8 mph - N/A   Partly Cloudy